FW8568 Weather Reports


Display with metric or nautical units.
time (UTC)temp
F
wind
direction
speed
MPH
gust
MPH
rain 1hr
in
rain 24hr
in
rain mn
in
humidity
%
barometer
mb
20260510043658 84 90 0.0 0.0 0.00 0.00 0.00 19 1006.9
20260510043155 85 52 0.0 0.0 0.00 0.00 0.00 18 1007.2
20260510042652 86 52 0.0 0.0 0.00 0.00 0.00 19 1006.9
20260510042148 86 128 0.0 0.0 0.00 0.00 0.00 18 1007.0
20260510041645 86 128 0.0 1.0 0.00 0.00 0.00 18 1006.7
20260510041142 87 52 0.0 1.0 0.00 0.00 0.00 17 1006.8
20260510040640 88 64 0.0 1.0 0.00 0.00 0.00 17 1006.8
20260510040136 89 76 0.0 1.0 0.00 0.00 0.00 18 1006.8
20260510035631 89 84 1.0 2.0 0.00 0.00 0.00 17 1006.6
20260510035127 89 72 0.0 1.0 0.00 0.00 0.00 17 1006.5
20260510034624 89 77 0.0 1.0 0.00 0.00 0.00 18 1006.6
20260510034121 90 72 0.0 3.0 0.00 0.00 0.00 16 1006.5
20260510033618 89 100 1.0 2.0 0.00 0.00 0.00 16 1006.4
20260510033115 89 94 1.0 2.0 0.00 0.00 0.00 17 1006.4
20260510032611 90 52 0.0 1.0 0.00 0.00 0.00 16 1006.3
20260510032107 91 65 0.0 2.0 0.00 0.00 0.00 16 1006.3
20260510031602 91 104 0.0 2.0 0.00 0.00 0.00 16 1006.3
20260510031058 92 82 0.0 2.0 0.00 0.00 0.00 16 1006.1
20260510030554 92 98 2.0 3.0 0.00 0.00 0.00 15 1006.2
20260510030051 93 68 0.0 3.0 0.00 0.00 0.00 16 1006.1
20260510025548 93 90 1.0 2.0 0.00 0.00 0.00 15 1006.0
20260510025046 94 67 0.0 2.0 0.00 0.00 0.00 16 1005.8
20260510024542 95 78 2.0 3.0 0.00 0.00 0.00 15 1005.8
20260510024039 95 87 2.0 5.0 0.00 0.00 0.00 15 1005.8
20260510023535 96 92 2.0 4.0 0.00 0.00 0.00 15 1005.7
20260510023033 96 74 2.0 3.0 0.00 0.00 0.00 15 1005.8
20260510022532 96 80 2.0 4.0 0.00 0.00 0.00 15 1005.8
20260510022032 97 102 0.0 5.0 0.00 0.00 0.00 14 1006.0
20260510021528 97 108 3.0 4.0 0.00 0.00 0.00 14 1005.7
20260510021026 98 74 2.0 5.0 0.00 0.00 0.00 14 1005.7
20260510020520 98 89 3.0 5.0 0.00 0.00 0.00 14 1005.7
20260510020016 99 87 3.0 6.0 0.00 0.00 0.00 13 1005.5
20260510015512 100 77 3.0 6.0 0.00 0.00 0.00 14 1005.5
20260510015008 100 80 6.0 7.0 0.00 0.00 0.00 13 1005.7
20260510014505 101 88 2.0 6.0 0.00 0.00 0.00 13 1005.3
20260510014002 101 88 5.0 7.0 0.00 0.00 0.00 13 1005.4
20260510013456 101 90 2.0 6.0 0.00 0.00 0.00 12 1005.6
20260510012952 101 58 2.0 6.0 0.00 0.00 0.00 12 1005.5
20260510012447 101 77 2.0 6.0 0.00 0.00 0.00 12 1005.5
20260510011942 102 70 2.0 7.0 0.00 0.00 0.00 12 1005.5
20260510011437 103 97 5.0 6.0 0.00 0.00 0.00 12 1005.2
20260510010934 103 111 3.0 7.0 0.00 0.00 0.00 12 1005.6
20260510010431 104 94 3.0 9.0 0.00 0.00 0.00 12 1005.4
20260510005928 104 68 2.0 6.0 0.00 0.00 0.00 12 1005.5
20260510005424 104 103 3.0 6.0 0.00 0.00 0.00 12 1005.6
20260510004921 105 86 2.0 6.0 0.00 0.00 0.00 12 1005.3
20260510004419 105 95 4.0 6.0 0.00 0.00 0.00 12 1005.5
20260510003916 105 102 4.0 12.0 0.00 0.00 0.00 12 1005.3
20260510003414 105 80 4.0 5.0 0.00 0.00 0.00 12 1005.4
20260510002912 105 77 5.0 7.0 0.00 0.00 0.00 12 1005.5
20260510002410 105 101 4.0 7.0 0.00 0.00 0.00 12 1005.4
20260510001906 106 98 5.0 7.0 0.00 0.00 0.00 12 1005.3
20260510001404 105 116 3.0 5.0 0.00 0.00 0.00 12 1005.5
20260510000900 105 129 4.0 9.0 0.00 0.00 0.00 12 1005.6
20260510000357 105 101 4.0 6.0 0.00 0.00 0.00 12 1005.7
20260509235853 105 68 4.0 8.0 0.00 0.00 0.00 12 1005.8
20260509235350 106 85 5.0 7.0 0.00 0.00 0.00 12 1005.9
20260509234846 106 102 4.0 9.0 0.00 0.00 0.00 13 1005.6
20260509234343 106 129 3.0 4.0 0.00 0.00 0.00 12 1006.0
20260509233842 106 61 2.0 5.0 0.00 0.00 0.00 12 1006.0
20260509233339 106 73 4.0 7.0 0.00 0.00 0.00 12 1005.8
20260509232834 107 102 2.0 5.0 0.00 0.00 0.00 12 1005.8
20260509232333 105 88 4.0 8.0 0.00 0.00 0.00 12 1005.8
20260509231828 106 96 3.0 7.0 0.00 0.00 0.00 12 1006.0
20260509231325 106 74 3.0 8.0 0.00 0.00 0.00 13 1006.1
20260509230823 106 80 4.0 7.0 0.00 0.00 0.00 12 1005.9
20260509230320 105 82 5.0 5.0 0.00 0.00 0.00 13 1006.0
20260509225815 105 100 5.0 7.0 0.00 0.00 0.00 12 1006.3
20260509225312 105 69 2.0 6.0 0.00 0.00 0.00 12 1006.2
20260509224808 106 79 2.0 6.0 0.00 0.00 0.00 13 1006.2
20260509224305 107 81 3.0 4.0 0.00 0.00 0.00 12 1006.2
20260509223801 107 101 2.0 3.0 0.00 0.00 0.00 12 1006.3
20260509223258 105 136 3.0 7.0 0.00 0.00 0.00 13 1006.2
20260509222754 105 80 2.0 6.0 0.00 0.00 0.00 13 1006.3
20260509222244 105 89 5.0 7.0 0.00 0.00 0.00 13 1006.3
20260509221740 105 99 3.0 4.0 0.00 0.00 0.00 12 1006.4
20260509221237 104 81 5.0 5.0 0.00 0.00 0.00 13 1006.5
20260509220733 105 345 3.0 4.0 0.00 0.00 0.00 13 1006.6
20260509220229 106 97 6.0 9.0 0.00 0.00 0.00 13 1006.7
20260509215725 106 109 2.0 5.0 0.00 0.00 0.00 12 1006.6
20260509215222 105 72 1.0 4.0 0.00 0.00 0.00 12 1006.9
20260509214719 105 110 4.0 9.0 0.00 0.00 0.00 12 1007.0
20260509214216 105 54 2.0 5.0 0.00 0.00 0.00 13 1007.0
20260509213713 104 76 5.0 6.0 0.00 0.00 0.00 13 1007.2
20260509213208 105 134 5.0 8.0 0.00 0.00 0.00 13 1007.3
20260509212706 104 93 6.0 6.0 0.00 0.00 0.00 12 1007.3
20260509212203 104 98 4.0 6.0 0.00 0.00 0.00 13 1007.5
20260509211659 104 87 3.0 8.0 0.00 0.00 0.00 13 1007.4
20260509211155 104 75 4.0 7.0 0.00 0.00 0.00 13 1007.6
20260509210652 103 97 2.0 5.0 0.00 0.00 0.00 12 1007.9
20260509210149 103 61 2.0 5.0 0.00 0.00 0.00 13 1008.1
20260509205645 102 87 5.0 7.0 0.00 0.00 0.00 13 1007.9
20260509205144 102 107 1.0 7.0 0.00 0.00 0.00 13 1008.1
20260509204640 103 93 3.0 9.0 0.00 0.00 0.00 13 1008.1
20260509204137 102 120 5.0 8.0 0.00 0.00 0.00 13 1008.0
20260509203633 102 98 4.0 8.0 0.00 0.00 0.00 14 1008.2
20260509203131 102 96 4.0 6.0 0.00 0.00 0.00 14 1008.4
20260509202626 102 90 5.0 6.0 0.00 0.00 0.00 13 1008.6
20260509202121 102 83 3.0 3.0 0.00 0.00 0.00 14 1008.6
20260509201616 101 86 2.0 5.0 0.00 0.00 0.00 14 1008.5
20260509201114 100 107 1.0 4.0 0.00 0.00 0.00 16 1008.6
20260509200609 99 39 1.0 5.0 0.00 0.00 0.00 15 1008.8
20260509200105 100 116 1.0 10.0 0.00 0.00 0.00 15 1009.0
20260509195601 100 98 3.0 5.0 0.00 0.00 0.00 16 1009.0
20260509195055 99 132 1.0 2.0 0.00 0.00 0.00 17 1009.0
20260509194555 99 108 3.0 5.0 0.00 0.00 0.00 16 1009.1
20260509194053 98 337 0.0 3.0 0.00 0.00 0.00 17 1009.1
20260509193548 98 104 1.0 6.0 0.00 0.00 0.00 15 1009.5
20260509193045 98 103 5.0 5.0 0.00 0.00 0.00 16 1009.2
20260509192542 98 137 3.0 8.0 0.00 0.00 0.00 16 1009.4
20260509192037 99 87 3.0 7.0 0.00 0.00 0.00 15 1009.4
20260509191531 98 68 0.0 2.0 0.00 0.00 0.00 17 1009.5
20260509191027 99 324 0.0 2.0 0.00 0.00 0.00 16 1009.6
20260509190524 99 79 1.0 2.0 0.00 0.00 0.00 16 1009.6
20260509190022 98 75 0.0 2.0 0.00 0.00 0.00 17 1009.8
20260509185520 98 90 1.0 3.0 0.00 0.00 0.00 18 1009.9
20260509185016 98 92 2.0 3.0 0.00 0.00 0.00 16 1009.7
20260509184514 98 75 0.0 2.0 0.00 0.00 0.00 17 1010.0
20260509184010 97 98 2.0 2.0 0.00 0.00 0.00 17 1009.9
20260509183505 97 70 1.0 5.0 0.00 0.00 0.00 18 1009.9
20260509183001 97 73 2.0 3.0 0.00 0.00 0.00 18 1010.0
20260509182458 97 94 1.0 2.0 0.00 0.00 0.00 17 1010.1
20260509181955 98 121 0.0 2.0 0.00 0.00 0.00 18 1010.3
20260509181453 98 92 1.0 2.0 0.00 0.00 0.00 17 1010.5
20260509180950 97 74 1.0 2.0 0.00 0.00 0.00 17 1010.2
20260509180445 96 96 0.0 3.0 0.00 0.00 0.00 21 1010.6
20260509175943 96 156 0.0 2.0 0.00 0.00 0.00 18 1010.4
20260509175439 95 98 3.0 4.0 0.00 0.00 0.00 17 1010.5
20260509174936 95 104 0.0 2.0 0.00 0.00 0.00 18 1010.4
20260509174432 95 172 2.0 2.0 0.00 0.00 0.00 18 1010.5
20260509173927 95 342 0.0 2.0 0.00 0.00 0.00 18 1010.3
20260509173427 94 115 3.0 5.0 0.00 0.00 0.00 18 1010.5
20260509172924 92 101 2.0 5.0 0.00 0.00 0.00 19 1010.7
20260509172421 94 78 1.0 2.0 0.00 0.00 0.00 19 1010.4
20260509171916 95 187 0.0 2.0 0.00 0.00 0.00 18 1010.5
20260509171413 95 73 0.0 1.0 0.00 0.00 0.00 19 1010.6
20260509170909 94 147 0.0 1.0 0.00 0.00 0.00 18 1010.5
20260509170405 93 2 0.0 2.0 0.00 0.00 0.00 18 1010.6
20260509165901 93 59 0.0 3.0 0.00 0.00 0.00 19 1010.9
20260509165355 93 305 0.0 3.0 0.00 0.00 0.00 19 1010.8
20260509164851 93 26 0.0 2.0 0.00 0.00 0.00 18 1010.8
20260509164347 93 24 0.0 2.0 0.00 0.00 0.00 19 1010.8
20260509163843 93 101 0.0 1.0 0.00 0.00 0.00 19 1010.6
20260509163340 91 256 0.0 3.0 0.00 0.00 0.00 20 1010.6
20260509162839 93 284 0.0 2.0 0.00 0.00 0.00 18 1010.6
20260509162338 93 52 0.0 2.0 0.00 0.00 0.00 19 1010.9
20260509161834 93 77 1.0 2.0 0.00 0.00 0.00 19 1010.8
20260509161331 92 208 0.0 2.0 0.00 0.00 0.00 20 1010.7
20260509160826 93 274 4.0 4.0 0.00 0.00 0.00 19 1010.6
20260509160322 94 116 1.0 1.0 0.00 0.00 0.00 21 1010.6
20260509155817 92 157 0.0 1.0 0.00 0.00 0.00 20 1011.0
20260509155314 93 240 0.0 2.0 0.00 0.00 0.00 20 1010.7
20260509154810 92 84 0.0 2.0 0.00 0.00 0.00 21 1010.7
20260509154308 92 153 0.0 1.0 0.00 0.00 0.00 21 1010.5
20260509153805 93 242 1.0 3.0 0.00 0.00 0.00 20 1010.5
20260509153301 93 187 0.0 1.0 0.00 0.00 0.00 20 1010.8
20260509152758 91 65 0.0 1.0 0.00 0.00 0.00 21 1010.8
20260509152253 92 191 1.0 1.0 0.00 0.00 0.00 21 1010.7
20260509151751 91 80 0.0 1.0 0.00 0.00 0.00 21 1010.5
20260509151247 90 195 0.0 1.0 0.00 0.00 0.00 21 1010.5
20260509150746 89 81 0.0 2.0 0.00 0.00 0.00 22 1010.6
20260509150244 88 257 0.0 2.0 0.00 0.00 0.00 22 1010.6
20260509145740 86 214 1.0 3.0 0.00 0.00 0.00 24 1010.5
20260509145240 86 278 1.0 2.0 0.00 0.00 0.00 24 1010.6
20260509144737 84 292 1.0 3.0 0.00 0.00 0.00 24 1010.5
20260509144234 84 246 2.0 3.0 0.00 0.00 0.00 25 1010.6
20260509143731 84 248 2.0 3.0 0.00 0.00 0.00 24 1010.5
20260509143228 84 274 1.0 2.0 0.00 0.00 0.00 25 1010.4
20260509142723 83 242 2.0 2.0 0.00 0.00 0.00 25 1010.5
20260509142220 82 245 1.0 3.0 0.00 0.00 0.00 25 1010.5
20260509141716 82 269 1.0 3.0 0.00 0.00 0.00 25 1010.5
20260509141214 81 288 3.0 3.0 0.00 0.00 0.00 26 1010.2
20260509140710 82 270 1.0 2.0 0.00 0.00 0.00 26 1010.4
20260509140208 80 259 0.0 3.0 0.00 0.00 0.00 27 1010.3
20260509135705 80 280 1.0 2.0 0.00 0.00 0.00 27 1009.9
20260509135203 79 246 2.0 4.0 0.00 0.00 0.00 28 1010.3
20260509134659 78 244 2.0 3.0 0.00 0.00 0.00 29 1010.1
20260509134157 76 248 3.0 3.0 0.00 0.00 0.00 30 1009.9
20260509133654 75 255 2.0 3.0 0.00 0.00 0.00 32 1009.8
20260509133151 74 277 2.0 3.0 0.00 0.00 0.00 32 1009.7
20260509132649 73 307 1.0 3.0 0.00 0.00 0.00 31 1009.7
20260509132147 73 284 0.0 2.0 0.00 0.00 0.00 32 1009.8
20260509131643 73 314 0.0 2.0 0.00 0.00 0.00 32 1009.5
20260509131140 72 291 1.0 2.0 0.00 0.00 0.00 34 1009.6
20260509130636 72 256 1.0 2.0 0.00 0.00 0.00 35 1009.6
20260509130132 71 268 0.0 1.0 0.00 0.00 0.00 35 1009.4
20260509125629 71 254 2.0 3.0 0.00 0.00 0.00 36 1009.3
20260509125126 70 248 0.0 1.0 0.00 0.00 0.00 35 1009.5
20260509124622 70 290 0.0 2.0 0.00 0.00 0.00 35 1009.2
20260509124119 70 315 0.0 1.0 0.00 0.00 0.00 34 1009.1
20260509123617 71 270 0.0 1.0 0.00 0.00 0.00 34 1009.3
20260509123114 71 284 0.0 2.0 0.00 0.00 0.00 35 1009.0
20260509122609 71 291 0.0 2.0 0.00 0.00 0.00 33 1009.0
20260509122107 71 295 1.0 2.0 0.00 0.00 0.00 32 1008.8
20260509121603 71 237 1.0 1.0 0.00 0.00 0.00 32 1008.7
20260509121101 71 239 0.0 1.0 0.00 0.00 0.00 32 1008.7
20260509120559 70 312 0.0 2.0 0.00 0.00 0.00 32 1008.8
20260509120057 70 306 1.0 2.0 0.00 0.00 0.00 32 1009.0
20260509115554 71 293 0.0 1.0 0.00 0.00 0.00 32 1008.6
20260509115052 71 271 0.0 1.0 0.00 0.00 0.00 32 1008.8
20260509114549 71 312 0.0 1.0 0.00 0.00 0.00 32 1008.7
20260509114048 71 319 0.0 1.0 0.00 0.00 0.00 31 1008.6
20260509113546 71 284 0.0 1.0 0.00 0.00 0.00 31 1008.6
20260509113043 72 284 0.0 0.0 0.00 0.00 0.00 32 1008.7
20260509112540 72 312 0.0 0.0 0.00 0.00 0.00 30 1008.7
20260509112037 72 49 0.0 0.0 0.00 0.00 0.00 31 1008.8
20260509111534 72 284 0.0 0.0 0.00 0.00 0.00 30 1008.7
20260509111031 73 291 0.0 0.0 0.00 0.00 0.00 30 1008.3
20260509110528 73 325 0.0 0.0 0.00 0.00 0.00 30 1008.6
20260509110025 73 324 0.0 1.0 0.00 0.00 0.00 29 1008.5
20260509105523 73 284 0.0 0.0 0.00 0.00 0.00 29 1008.7
20260509105020 73 284 0.0 0.0 0.00 0.00 0.00 28 1008.5
20260509104517 73 257 0.0 0.0 0.00 0.00 0.00 29 1008.4
20260509104014 74 261 0.0 0.0 0.00 0.00 0.00 27 1008.6
20260509103512 74 284 0.0 0.0 0.00 0.00 0.00 27 1008.5
20260509103010 74 298 0.0 0.0 0.00 0.00 0.00 27 1008.5
20260509102507 74 298 0.0 1.0 0.00 0.00 0.00 30 1008.5
20260509102003 74 284 0.0 0.0 0.00 0.00 0.00 28 1008.3
20260509101500 75 284 0.0 0.0 0.00 0.00 0.00 26 1008.7
20260509100957 75 257 0.0 1.0 0.00 0.00 0.00 26 1008.2
20260509100454 75 258 0.0 1.0 0.00 0.00 0.00 26 1008.4
20260509095951 76 270 0.0 0.0 0.00 0.00 0.00 26 1008.4
20260509095447 76 267 0.0 0.0 0.00 0.00 0.00 25 1008.1
20260509094945 75 174 0.0 0.0 0.00 0.00 0.00 26 1008.3
20260509094441 75 261 0.0 0.0 0.00 0.00 0.00 25 1008.3
20260509093939 75 261 0.0 0.0 0.00 0.00 0.00 27 1008.3
20260509093436 76 261 0.0 0.0 0.00 0.00 0.00 25 1008.4
20260509092934 76 284 0.0 0.0 0.00 0.00 0.00 25 1008.3
20260509092432 77 257 0.0 0.0 0.00 0.00 0.00 24 1008.7
20260509091930 77 250 0.0 0.0 0.00 0.00 0.00 24 1008.5
20260509091427 76 311 0.0 1.0 0.00 0.00 0.00 24 1008.4
20260509090924 76 30 0.0 0.0 0.00 0.00 0.00 26 1008.6
20260509090421 76 299 0.0 0.0 0.00 0.00 0.00 25 1008.4
20260509085919 76 342 0.0 0.0 0.00 0.00 0.00 25 1008.4
20260509085416 77 270 0.0 0.0 0.00 0.00 0.00 25 1008.5
20260509084911 77 324 0.0 0.0 0.00 0.00 0.00 24 1008.4
20260509084409 77 312 0.0 0.0 0.00 0.00 0.00 25 1008.5
20260509083906 77 349 0.0 0.0 0.00 0.00 0.00 24 1008.5
20260509083403 78 359 0.0 0.0 0.00 0.00 0.00 24 1008.3
20260509082900 78 268 0.0 0.0 0.00 0.00 0.00 24 1008.3
20260509082357 79 270 0.0 0.0 0.00 0.00 0.00 23 1008.1
20260509081854 80 161 0.0 0.0 0.00 0.00 0.00 23 1008.2
20260509081351 80 147 1.0 2.0 0.00 0.00 0.00 23 1008.2
20260509080849 80 133 1.0 1.0 0.00 0.00 0.00 24 1008.2
20260509080346 81 145 0.0 0.0 0.00 0.00 0.00 23 1008.1
20260509075844 81 164 0.0 1.0 0.00 0.00 0.00 23 1008.2
20260509075341 81 34 0.0 0.0 0.00 0.00 0.00 23 1008.0
20260509074838 82 108 2.0 2.0 0.00 0.00 0.00 22 1008.1
20260509074336 82 104 0.0 2.0 0.00 0.00 0.00 22 1008.1
20260509073832 82 149 0.0 3.0 0.00 0.00 0.00 23 1008.2
20260509073329 82 92 2.0 2.0 0.00 0.00 0.00 22 1008.2
20260509072825 83 77 0.0 1.0 0.00 0.00 0.00 22 1008.1
20260509072322 83 107 0.0 1.0 0.00 0.00 0.00 22 1008.2
20260509071819 84 104 0.0 1.0 0.00 0.00 0.00 21 1008.0
20260509071316 84 123 3.0 3.0 0.00 0.00 0.00 20 1007.9
20260509070813 85 99 1.0 2.0 0.00 0.00 0.00 20 1008.0
20260509070309 85 121 1.0 3.0 0.00 0.00 0.00 20 1008.2
20260509065806 85 104 2.0 3.0 0.00 0.00 0.00 20 1007.9
20260509065305 85 95 3.0 3.0 0.00 0.00 0.00 20 1008.2
20260509064758 86 75 0.0 3.0 0.00 0.00 0.00 19 1008.1
20260509064255 86 90 2.0 2.0 0.00 0.00 0.00 19 1008.3
20260509063753 86 104 0.0 3.0 0.00 0.00 0.00 20 1008.1
20260509063249 86 94 2.0 3.0 0.00 0.00 0.00 19 1008.1
20260509062747 86 99 0.0 2.0 0.00 0.00 0.00 19 1008.1
20260509062243 86 84 1.0 2.0 0.00 0.00 0.00 20 1008.0
20260509061740 87 73 0.0 2.0 0.00 0.00 0.00 19 1008.1
20260509061238 88 96 0.0 3.0 0.00 0.00 0.00 20 1008.2
20260509060735 88 81 4.0 5.0 0.00 0.00 0.00 18 1008.0
20260509060232 88 64 2.0 4.0 0.00 0.00 0.00 19 1008.1
20260509055727 88 93 1.0 3.0 0.00 0.00 0.00 18 1008.2
20260509055224 89 50 0.0 3.0 0.00 0.00 0.00 19 1008.1
20260509054720 89 78 1.0 3.0 0.00 0.00 0.00 19 1008.1
20260509054217 89 82 2.0 4.0 0.00 0.00 0.00 18 1007.9
20260509053716 90 66 2.0 5.0 0.00 0.00 0.00 18 1007.6
20260509053212 90 77 2.0 4.0 0.00 0.00 0.00 18 1007.9
20260509052710 90 96 2.0 5.0 0.00 0.00 0.00 18 1007.9
20260509052208 90 84 1.0 4.0 0.00 0.00 0.00 17 1007.9
20260509051705 90 130 1.0 4.0 0.00 0.00 0.00 18 1007.9
20260509051203 91 101 3.0 4.0 0.00 0.00 0.00 18 1008.1
20260509050700 91 88 3.0 4.0 0.00 0.00 0.00 18 1008.0
20260509050156 91 100 2.0 4.0 0.00 0.00 0.00 18 1008.0
20260509045653 91 112 1.0 4.0 0.00 0.00 0.00 18 1007.6
20260509045150 91 63 1.0 5.0 0.00 0.00 0.00 18 1007.9
20260509044647 91 82 2.0 4.0 0.00 0.00 0.00 18 1007.8
20260509044145 91 87 3.0 5.0 0.00 0.00 0.00 18 1007.9